Theta_e
308 304 300 301 302 302 303 302 301 302 302 301 300 300 299 298 297 296 295 292 291 290
299 297 297 297 298 299 299 299 299 300 300 300 299 299 298 297 296 295 295 293 292 291
291 294 295 296 296 296 297 297 297 298 298 297 298 298 297 297 295 294 294 293 291 290
286 288 292 293 294 295 296 296 296 297 297 296 296 296 296 296 293 293 291 291 291 290
284 285 286 287 290 293 294 295 295 296 296 295 295 295 295 293 293 292 290 291 290 289
282 283 284 285 287 289 292 293 294 294 294 294 294 294 294 294 292 292 292 291 291 290
279 280 283 285 286 287 289 291 292 293 294 294 293 293 293 293 291 291 292 291 291 291
277 278 280 282 284 286 287 287 289 291 292 292 292 292 291 291 291 291 288 289 291 290
275 276 277 279 281 283 285 286 287 286 287 289 291 293 293 292 291 290 289 288 287 289
273 275 275 277 278 279 281 285 285 285 285 283 284 291 293 292 289 288 288 288 287 286
272 273 274 275 275 277 279 281 283 285 285 285 285 288 289 291 282 283 284 286 287 287
270 272 272 272 273 275 276 279 279 281 282 284 285 289 288 289 280 281 282 284 286 287
269 270 270 271 272 273 275 276 279 279 279 280 281 287 290 289 282 277 277 277 283 285
267 268 269 270 271 271 273 275 276 277 278 279 280 282 286 289 285 284 281 278 278 283
Wind_Speed
4 4 4 8 7 9 10 10 11 13 13 13 13 12 12 10 10 10 10 10 7 5
4 5 6 7 5 5 5 6 9 12 11 11 12 13 13 10 11 10 10 9 8 6
13 7 1 6 7 7 6 7 9 11 10 10 11 12 13 10 9 11 8 7 10 6
15 14 9 6 3 5 6 7 9 11 10 10 11 12 12 11 10 13 10 8 11 10
15 15 13 11 10 5 3 4 7 8 9 9 10 11 12 12 11 13 12 12 10 10
17 17 16 14 12 11 4 4 4 6 8 9 9 9 10 11 10 12 12 13 14 12
17 16 15 14 14 13 12 5 4 5 7 8 9 9 10 10 10 11 11 10 13 12
16 16 15 16 15 13 13 11 9 3 4 5 5 7 8 9 10 10 8 8 10 11
17 18 17 16 16 14 13 12 11 10 7 3 3 8 12 12 9 9 10 10 8 8
17 17 17 16 16 16 15 12 11 9 9 7 6 11 9 12 5 7 9 9 9 7
16 15 15 15 16 16 14 14 12 10 9 7 6 14 14 9 3 4 5 7 9 10
15 14 14 16 16 14 13 13 13 13 14 13 9 16 13 7 4 4 5 5 6 8
13 13 12 12 13 13 12 11 10 11 12 13 12 20 18 8 2 2 2 1 3 9
11 12 12 11 10 11 10 10 10 10 10 11 13 15 26 22 3 1 1 1 2 3
Wind_Direction
174 165 164 174 181 188 189 185 178 187 189 186 182 179 178 184 188 188 196 188 173 184
0 140 154 162 158 170 156 160 167 184 186 185 178 178 178 183 187 184 188 195 188 192
6 1 107 146 161 167 158 153 160 176 181 177 181 180 179 184 179 181 189 183 183 185
10 11 20 9 331 174 159 158 169 178 178 176 179 183 185 188 176 185 177 182 188 198
14 15 20 14 358 346 268 171 175 176 178 181 187 187 189 187 184 187 183 188 180 194
17 17 16 12 5 358 299 214 199 166 177 184 188 185 196 195 187 192 196 188 190 188
13 11 9 11 15 12 6 329 234 204 198 188 185 187 192 192 189 194 198 190 192 184
11 13 11 9 12 14 19 13 349 280 223 202 183 187 182 190 192 191 180 182 187 189
10 13 14 10 8 10 12 16 18 14 349 255 212 211 198 190 191 188 187 188 186 179
3 7 9 9 11 10 4 7 15 16 16 4 341 347 227 204 192 184 193 189 181 177
359 1 1 8 8 5 5 6 7 10 10 18 17 6 351 232 158 170 184 185 184 187
353 354 0 4 360 358 358 5 9 11 14 15 12 9 1 340 158 162 185 180 176 177
347 347 1 357 356 350 352 352 358 7 11 10 7 1 15 17 108 143 165 157 169 189
334 344 354 350 354 350 348 349 357 0 0 6 7 5 15 17 19 279 250 203 202 209